GW2042 Weather Reports


time (UTC)temp
C
wind
direction
speed
KPH
gust
KPH
rain 1hr
cm
rain 24hr
cm
rain mn
cm
humidity
%
barometer
mb
20260510000032 30 0 0.0 8.0 0.00 0.13 0.13 43 1009.2
20260509235514 30 144 1.6 6.4 0.00 0.13 0.13 41 1009.2
20260509235019 30 166 1.6 6.4 0.00 0.13 0.13 44 1009.1
20260509234542 30 196 1.6 4.8 0.00 0.13 0.13 45 1009.1
20260509234016 31 131 1.6 4.8 0.00 0.13 0.13 43 1009.1
20260509233515 31 0 0.0 8.0 0.00 0.13 0.13 43 1009.1
20260509233029 31 162 1.6 8.0 0.00 0.13 0.13 42 1009.1
20260509232516 31 0 1.6 8.0 0.00 0.13 0.13 42 1009.0
20260509232013 31 184 1.6 8.0 0.00 0.13 0.13 41 1009.0
20260509231528 31 0 3.2 8.0 0.00 0.13 0.13 42 1009.1
20260509231017 31 0 1.6 11.3 0.00 0.13 0.13 43 1009.1
20260509230515 31 262 4.8 11.3 0.00 0.13 0.13 41 1009.1
20260509230038 31 194 0.0 11.3 0.00 0.13 0.13 42 1009.1
20260509225516 31 0 3.2 11.3 0.00 0.13 0.13 44 1009.1
20260509225014 31 194 3.2 11.3 0.00 0.13 0.13 43 1009.1
20260509224529 31 146 3.2 11.3 0.00 0.13 0.13 43 1009.1
20260509224015 31 185 1.6 8.0 0.00 0.13 0.13 44 1009.1
20260509223515 31 0 1.6 9.7 0.00 0.13 0.13 40 1009.2
20260509223030 31 149 1.6 11.3 0.00 0.13 0.13 43 1009.2
20260509222515 31 184 3.2 11.3 0.00 0.13 0.13 43 1009.1
20260509222014 31 232 1.6 8.0 0.00 0.13 0.13 41 1009.1
20260509221536 31 188 3.2 11.3 0.00 0.13 0.13 39 1009.1
20260509221015 32 209 1.6 11.3 0.00 0.13 0.13 41 1009.1
20260509220516 31 0 1.6 8.0 0.00 0.13 0.13 40 1009.0
20260509220032 32 140 1.6 12.9 0.00 0.13 0.13 40 1009.1
20260509215514 32 161 3.2 12.9 0.00 0.13 0.13 39 1009.1
20260509215014 31 132 1.6 11.3 0.00 0.13 0.13 40 1009.2
20260509214532 32 105 1.6 11.3 0.00 0.13 0.13 38 1009.3
20260509214016 32 228 6.4 11.3 0.00 0.13 0.13 40 1009.3
20260509213515 32 147 1.6 9.7 0.00 0.13 0.13 40 1009.3
20260509213034 31 0 0.0 11.3 0.00 0.13 0.13 42 1009.3
20260509212514 32 157 3.2 14.5 0.00 0.13 0.13 40 1009.4
20260509212016 32 225 6.4 14.5 0.00 0.13 0.13 41 1009.5
20260509211533 32 159 3.2 12.9 0.00 0.13 0.13 40 1009.5
20260509211017 32 165 3.2 12.9 0.00 0.13 0.13 41 1009.6
20260509210516 31 134 1.6 9.7 0.00 0.13 0.13 43 1009.7
20260509210036 32 209 3.2 16.1 0.00 0.13 0.13 41 1009.8
20260509205515 32 161 4.8 16.1 0.00 0.13 0.13 42 1009.9
20260509205018 32 33 3.2 9.7 0.00 0.13 0.13 42 1010.0
20260509204532 32 92 3.2 11.3 0.00 0.13 0.13 41 1010.0
20260509204015 31 230 4.8 11.3 0.00 0.13 0.13 43 1010.1
20260509203516 31 256 4.8 11.3 0.00 0.13 0.13 41 1010.2
20260509203031 32 186 1.6 12.9 0.00 0.13 0.13 41 1010.3
20260509202515 32 159 3.2 12.9 0.00 0.13 0.13 43 1010.2
20260509202015 32 98 3.2 11.3 0.00 0.13 0.13 45 1010.4
20260509201531 31 234 3.2 9.7 0.00 0.13 0.13 45 1010.3
20260509201015 31 128 1.6 8.0 0.00 0.13 0.13 48 1010.3
20260509200515 31 234 1.6 8.0 0.00 0.13 0.13 45 1010.4
20260509200030 31 125 3.2 8.0 0.00 0.13 0.13 46 1010.4
20260509195521 30 343 1.6 9.7 0.00 0.13 0.13 47 1010.4
20260509195015 31 140 1.6 9.7 0.00 0.13 0.13 45 1010.6
20260509194533 31 150 1.6 8.0 0.00 0.13 0.13 47 1010.6
20260509194016 31 225 3.2 11.3 0.00 0.13 0.13 47 1010.8
20260509193516 31 158 3.2 11.3 0.00 0.13 0.13 50 1010.9
20260509193036 31 123 4.8 14.5 0.00 0.13 0.13 47 1010.9
20260509192515 31 110 3.2 14.5 0.00 0.13 0.13 47 1011.0
20260509192018 31 107 3.2 8.0 0.00 0.13 0.13 50 1011.1
20260509191530 31 93 1.6 8.0 0.00 0.13 0.13 51 1011.1
20260509191016 30 74 3.2 9.7 0.00 0.13 0.13 52 1011.0
20260509190517 30 346 3.2 9.7 0.00 0.13 0.13 49 1011.1
20260509190029 30 343 1.6 9.7 0.00 0.13 0.13 48 1011.2
20260509185516 30 55 3.2 9.7 0.00 0.18 0.13 50 1011.2
20260509185016 30 78 1.6 12.9 0.00 0.18 0.13 50 1011.2
20260509184538 30 69 3.2 12.9 0.00 0.18 0.13 48 1011.2
20260509184016 30 59 1.6 6.4 0.00 0.18 0.13 51 1011.4
20260509183516 29 86 1.6 6.4 0.00 0.18 0.13 49 1011.4
20260509183035 28 132 1.6 8.0 0.00 0.18 0.13 51 1011.4
20260509182515 28 57 3.2 8.0 0.00 0.18 0.13 51 1011.6
20260509182015 28 35 3.2 12.9 0.00 0.18 0.13 51 1011.7
20260509181530 28 216 4.8 12.9 0.00 0.18 0.13 51 1011.8
20260509181022 28 294 3.2 11.3 0.00 0.18 0.13 49 1011.8
20260509180516 29 331 3.2 8.0 0.00 0.18 0.13 51 1011.9
20260509180032 28 0 1.6 9.7 0.00 0.18 0.13 55 1012.0
20260509175515 28 5 4.8 12.9 0.00 0.18 0.13 54 1012.0
20260509175019 28 0 0.0 12.9 0.00 0.18 0.13 58 1012.2
20260509174532 28 328 3.2 12.9 0.00 0.18 0.13 54 1012.3
20260509174021 27 0 1.6 12.9 0.00 0.18 0.13 57 1012.4
20260509173517 27 304 3.2 12.9 0.00 0.18 0.13 57 1012.4
20260509173029 27 0 3.2 12.9 0.00 0.18 0.13 58 1012.4
20260509172520 27 286 3.2 12.9 0.00 0.18 0.13 59 1012.5
20260509172016 27 0 3.2 12.9 0.00 0.18 0.13 60 1012.4
20260509171541 27 315 4.8 12.9 0.00 0.18 0.13 60 1012.4
20260509171015 27 355 3.2 14.5 0.00 0.18 0.13 61 1012.4
20260509170516 27 278 6.4 14.5 0.00 0.18 0.13 61 1012.4
20260509170032 27 327 3.2 9.7 0.00 0.18 0.13 62 1012.5
20260509165515 27 44 3.2 11.3 0.00 0.18 0.13 64 1012.6
20260509165015 26 355 3.2 11.3 0.00 0.18 0.13 63 1012.5
20260509164533 26 344 3.2 11.3 0.00 0.18 0.13 64 1012.6
20260509164017 26 317 3.2 14.5 0.00 0.18 0.13 65 1012.7
20260509163516 26 298 4.8 14.5 0.00 0.18 0.13 65 1012.7
20260509163048 26 245 1.6 11.3 0.00 0.18 0.13 65 1012.8
20260509162514 25 0 3.2 12.9 0.00 0.18 0.13 67 1012.8
20260509162014 25 342 4.8 12.9 0.00 0.18 0.13 66 1012.9
20260509161533 25 281 4.8 12.9 0.00 0.18 0.13 67 1012.9
20260509161018 25 316 6.4 12.9 0.00 0.18 0.13 68 1012.9
20260509160515 25 311 3.2 12.9 0.00 0.18 0.13 68 1012.9
20260509160030 25 238 3.2 12.9 0.00 0.18 0.13 66 1012.9
20260509155514 24 265 6.4 12.9 0.00 0.18 0.13 69 1012.9
20260509155014 24 314 4.8 11.3 0.00 0.18 0.13 68 1012.9
20260509154535 24 26 3.2 9.7 0.00 0.18 0.13 72 1012.9
20260509154015 24 302 3.2 11.3 0.00 0.18 0.13 69 1012.9
20260509153514 23 301 4.8 11.3 0.00 0.18 0.13 70 1012.9
20260509153034 23 330 1.6 8.0 0.00 0.18 0.13 71 1012.8
20260509152514 23 306 3.2 8.0 0.00 0.18 0.13 70 1012.8
20260509152015 23 264 0.0 6.4 0.00 0.18 0.13 74 1012.8
20260509151532 23 329 0.0 4.8 0.00 0.18 0.13 72 1012.9
20260509151014 23 150 1.6 6.4 0.00 0.18 0.13 71 1012.9
20260509150514 22 0 1.6 6.4 0.00 0.18 0.13 72 1012.9
20260509150029 22 321 1.6 6.4 0.00 0.18 0.13 70 1012.9
20260509145514 22 298 3.2 6.4 0.00 0.18 0.13 73 1012.9
20260509145015 22 15 1.6 4.8 0.00 0.18 0.13 72 1013.0
20260509144546 22 344 1.6 4.8 0.00 0.18 0.13 74 1013.0
20260509144015 21 0 0.0 6.4 0.00 0.18 0.13 74 1013.1
20260509143522 21 0 0.0 8.0 0.00 0.18 0.13 79 1013.0
20260509143032 21 67 1.6 8.0 0.00 0.18 0.13 78 1013.0
20260509142517 21 335 1.6 8.0 0.00 0.18 0.13 77 1013.0
20260509142015 20 319 3.2 8.0 0.00 0.18 0.13 79 1012.9
20260509141539 20 0 1.6 6.4 0.00 0.18 0.13 81 1013.1
20260509141015 19 19 0.0 6.4 0.00 0.18 0.13 83 1013.1
20260509140516 19 9 1.6 6.4 0.00 0.18 0.13 82 1013.0
20260509140034 19 59 0.0 6.4 0.00 0.18 0.13 85 1013.0
20260509135515 18 0 1.6 6.4 0.00 0.18 0.13 85 1013.0
20260509135017 18 338 1.6 6.4 0.00 0.18 0.13 85 1013.0
20260509134529 18 355 1.6 6.4 0.00 0.18 0.13 85 1013.0
20260509134019 18 0 1.6 6.4 0.00 0.18 0.13 86 1013.0
20260509133516 18 332 1.6 8.0 0.00 0.18 0.13 86 1012.8
20260509133033 18 342 3.2 8.0 0.00 0.18 0.13 86 1012.8
20260509132516 18 342 3.2 8.0 0.00 0.18 0.13 87 1012.7
20260509132016 18 315 3.2 8.0 0.00 0.18 0.13 87 1012.8
20260509131538 17 311 1.6 6.4 0.00 0.18 0.13 89 1012.7
20260509131017 17 315 3.2 8.0 0.00 0.18 0.13 89 1012.7
20260509130516 17 329 1.6 8.0 0.00 0.18 0.13 90 1012.5
20260509130032 17 12 1.6 11.3 0.00 0.18 0.13 90 1012.4
20260509125516 17 0 3.2 11.3 0.00 0.18 0.13 90 1012.4
20260509125016 17 340 1.6 9.7 0.00 0.18 0.13 90 1012.3
20260509124543 17 340 3.2 8.0 0.00 0.18 0.13 90 1012.2
20260509124017 17 329 1.6 6.4 0.00 0.18 0.13 90 1012.1
20260509123516 17 338 0.0 6.4 0.00 0.18 0.13 91 1012.1
20260509123030 17 336 1.6 6.4 0.00 0.18 0.13 91 1012.1
20260509122515 17 346 1.6 6.4 0.00 0.18 0.13 90 1011.9
20260509122015 17 304 3.2 6.4 0.00 0.18 0.13 90 1011.8
20260509121535 17 355 0.0 3.2 0.00 0.18 0.13 91 1011.7
20260509121017 17 0 0.0 1.6 0.00 0.18 0.13 91 1011.5
20260509120517 17 0 0.0 3.2 0.00 0.18 0.13 91 1011.5
20260509120029 16 0 0.0 3.2 0.00 0.18 0.13 92 1011.4
20260509115517 17 0 0.0 3.2 0.00 0.18 0.13 91 1011.3
20260509115016 16 0 0.0 4.8 0.00 0.18 0.13 92 1011.2
20260509114533 17 0 0.0 4.8 0.00 0.18 0.13 92 1011.1
20260509114016 17 0 0.0 4.8 0.00 0.18 0.13 92 1011.0
20260509113516 17 0 0.0 4.8 0.00 0.18 0.13 92 1010.8
20260509113030 17 0 0.0 4.8 0.00 0.18 0.13 91 1010.8
20260509112517 17 0 0.0 4.8 0.00 0.18 0.13 91 1010.8
20260509112016 17 0 0.0 6.4 0.00 0.18 0.13 91 1010.6
20260509111531 17 58 0.0 6.4 0.00 0.18 0.13 91 1010.7
20260509111016 17 47 1.6 9.7 0.00 0.18 0.13 91 1010.5
20260509110515 17 67 1.6 9.7 0.00 0.18 0.13 91 1010.6
20260509110033 17 64 0.0 4.8 0.00 0.18 0.13 91 1010.6
20260509105516 17 0 0.0 4.8 0.00 0.18 0.13 89 1010.3
20260509105016 18 0 0.0 4.8 0.00 0.18 0.13 88 1010.1
20260509104536 18 0 1.6 4.8 0.00 0.18 0.13 88 1010.2
20260509104016 18 0 0.0 8.0 0.00 0.18 0.13 88 1010.2
20260509103516 18 0 3.2 8.0 0.00 0.18 0.13 88 1010.3
20260509103031 18 178 0.0 6.4 0.00 0.18 0.13 88 1010.1
20260509102518 18 178 1.6 11.3 0.00 0.18 0.13 87 1009.9
20260509102017 18 0 3.2 11.3 0.00 0.18 0.13 87 1010.1
20260509101531 18 163 3.2 11.3 0.00 0.18 0.13 87 1010.0
20260509101017 18 211 3.2 11.3 0.00 0.18 0.13 86 1009.8
20260509100516 18 208 3.2 9.7 0.00 0.18 0.13 86 1010.0
20260509100049 18 235 4.8 12.9 0.00 0.18 0.13 85 1009.9
20260509095518 18 234 3.2 16.1 0.00 0.18 0.13 85 1009.8
20260509095015 18 248 6.4 16.1 0.00 0.18 0.13 86 1010.0
20260509094535 18 229 4.8 11.3 0.00 0.18 0.13 87 1009.9
20260509094016 18 213 4.8 9.7 0.00 0.18 0.13 88 1009.6
20260509093516 18 167 1.6 12.9 0.00 0.18 0.13 88 1009.0
20260509093035 18 215 3.2 12.9 0.00 0.18 0.13 87 1008.9
20260509092515 18 157 4.8 11.3 0.00 0.18 0.13 89 1009.2
20260509092015 18 142 4.8 11.3 0.00 0.18 0.13 90 1009.9
20260509091532 17 148 4.8 12.9 0.00 0.18 0.13 91 1010.2
20260509091016 17 196 3.2 16.1 0.00 0.18 0.13 91 1010.7
20260509090516 17 288 3.2 17.7 0.00 0.18 0.13 91 1011.1
20260509090032 17 230 3.2 32.2 0.00 0.18 0.13 93 1010.9
20260509085516 17 160 9.7 32.2 0.00 0.18 0.13 93 1009.9
20260509085022 16 138 11.3 32.2 0.00 0.18 0.13 93 1009.3
20260509084535 16 143 4.8 9.7 0.00 0.18 0.13 92 1010.3
20260509084016 16 153 3.2 8.0 0.00 0.18 0.13 92 1010.6
20260509083516 16 165 4.8 8.0 0.00 0.18 0.13 91 1010.8
20260509083031 16 165 1.6 6.4 0.00 0.18 0.13 91 1011.3
20260509082520 16 136 0.0 8.0 0.00 0.18 0.13 90 1011.3
20260509082016 16 136 0.0 8.0 0.03 0.18 0.13 90 1010.9
20260509081542 16 148 1.6 8.0 0.05 0.18 0.13 90 1010.9
20260509081016 16 172 1.6 4.8 0.08 0.18 0.13 90 1011.1
20260509080517 16 151 1.6 6.4 0.13 0.18 0.13 90 1011.5
20260509080031 16 166 0.0 9.7 0.13 0.18 0.13 89 1012.0
20260509075517 16 133 3.2 9.7 0.13 0.18 0.13 89 1012.4
20260509075016 16 296 3.2 6.4 0.13 0.18 0.13 89 1012.3
20260509074535 16 271 0.0 3.2 0.13 0.18 0.13 89 1012.1
20260509074016 16 147 0.0 3.2 0.13 0.18 0.13 90 1012.3
20260509073516 16 0 0.0 3.2 0.13 0.18 0.13 90 1012.3
20260509073031 16 0 0.0 3.2 0.13 0.18 0.13 89 1012.5
20260509072521 16 65 0.0 9.7 0.13 0.18 0.13 87 1012.8
20260509072015 17 0 0.0 9.7 0.10 0.15 0.10 85 1013.2
20260509071530 17 61 3.2 12.9 0.08 0.13 0.08 83 1013.3
20260509071016 18 15 3.2 14.5 0.05 0.10 0.05 80 1013.4
20260509070516 19 86 4.8 14.5 0.00 0.05 0.00 79 1013.4
20260509070040 19 342 4.8 22.5 0.00 0.05 0.00 78 1013.4
20260509065520 18 350 4.8 22.5 0.00 0.05 0.00 83 1013.7
20260509065015 18 355 6.4 24.1 0.00 0.05 0.00 89 1013.6
20260509064531 18 332 6.4 24.1 0.00 0.05 0.00 93 1013.6
20260509064017 18 348 4.8 16.1 0.00 0.05 0.00 94 1013.5
20260509063516 18 17 3.2 12.9 0.00 0.05 0.00 94 1013.4
20260509063038 18 355 3.2 17.7 0.00 0.05 0.00 94 1012.8
20260509062518 18 360 3.2 17.7 0.00 0.05 0.00 94 1012.7
20260509062015 17 16 1.6 8.0 0.00 0.05 0.00 94 1012.6
20260509061543 17 24 0.0 8.0 0.00 0.05 0.00 93 1012.3
20260509061018 17 0 0.0 0.0 0.00 0.05 0.00 93 1012.0
20260509060520 17 0 0.0 0.0 0.00 0.05 0.00 93 1011.8
20260509060037 17 0 0.0 1.6 0.00 0.05 0.00 92 1011.9
20260509055516 17 0 0.0 1.6 0.00 0.05 0.00 92 1011.9
20260509055024 17 0 0.0 3.2 0.00 0.05 0.00 92 1012.0
20260509054535 18 0 0.0 4.8 0.00 0.05 0.00 92 1012.1
20260509054016 18 0 1.6 4.8 0.00 0.05 0.00 92 1011.9
20260509053516 18 133 1.6 4.8 0.00 0.05 0.00 92 1011.5
20260509053032 18 0 0.0 6.4 0.00 0.05 0.00 92 1011.3
20260509052516 18 0 1.6 6.4 0.00 0.05 0.00 92 1011.4
20260509052021 18 132 0.0 6.4 0.00 0.05 0.00 92 1011.2
20260509051534 18 162 1.6 6.4 0.00 0.05 0.00 92 1011.1
20260509051016 18 150 1.6 6.4 0.00 0.05 0.00 91 1011.0
20260509050516 18 172 1.6 6.4 0.00 0.05 0.00 91 1011.0
20260509050046 18 172 1.6 6.4 0.00 0.05 0.00 91 1010.9
20260509045516 18 165 3.2 11.3 0.00 0.05 0.05 91 1010.8
20260509045016 18 165 3.2 11.3 0.00 0.05 0.05 91 1010.7
20260509044542 18 144 1.6 11.3 0.00 0.05 0.05 91 1010.6
20260509044015 18 112 3.2 11.3 0.00 0.05 0.05 91 1010.5
20260509043515 18 191 1.6 11.3 0.00 0.05 0.05 91 1010.7
20260509043032 18 178 4.8 11.3 0.00 0.05 0.05 91 1010.7
20260509042520 18 165 4.8 11.3 0.00 0.05 0.05 91 1010.8
20260509042016 18 156 3.2 9.7 0.00 0.05 0.05 91 1010.8
20260509041532 18 163 1.6 8.0 0.00 0.05 0.05 91 1010.9
20260509041017 18 158 1.6 8.0 0.00 0.05 0.05 91 1011.0
20260509040515 18 169 1.6 6.4 0.00 0.05 0.05 91 1011.2
20260509040037 18 167 1.6 8.0 0.00 0.05 0.05 90 1011.2
20260509035515 19 151 1.6 8.0 0.00 0.05 0.05 90 1011.2
20260509035016 19 158 1.6 8.0 0.00 0.05 0.05 90 1011.1
20260509034534 19 167 1.6 9.7 0.00 0.05 0.05 90 1011.1
20260509034016 19 166 1.6 9.7 0.00 0.05 0.05 90 1011.0
20260509033515 19 152 1.6 12.9 0.00 0.05 0.05 89 1011.0
20260509033033 19 122 1.6 12.9 0.00 0.05 0.05 89 1010.9
20260509032520 19 144 3.2 9.7 0.00 0.05 0.05 89 1010.8
20260509032016 19 173 3.2 8.0 0.00 0.05 0.05 89 1010.8
20260509031534 19 160 3.2 8.0 0.00 0.05 0.05 89 1010.6
20260509031016 19 155 1.6 8.0 0.00 0.05 0.05 88 1010.7
20260509030519 19 145 1.6 8.0 0.00 0.05 0.05 88 1010.4
20260509030034 20 0 1.6 9.7 0.00 0.05 0.05 88 1010.3
20260509025516 20 186 1.6 9.7 0.00 0.05 0.05 88 1010.3
20260509025015 20 159 3.2 9.7 0.00 0.05 0.05 88 1010.2
20260509024532 20 154 1.6 12.9 0.00 0.05 0.05 88 1010.1
20260509024017 20 148 3.2 12.9 0.00 0.05 0.05 88 1010.1
20260509023520 20 182 3.2 11.3 0.00 0.05 0.05 87 1010.1
20260509023043 20 144 3.2 11.3 0.00 0.05 0.05 88 1010.1
20260509022516 19 150 1.6 3.2 0.00 0.05 0.05 87 1010.2
20260509022017 20 159 0.0 8.0 0.00 0.05 0.05 86 1010.3
20260509021534 20 0 1.6 8.0 0.00 0.05 0.05 86 1010.2
20260509021015 20 171 1.6 4.8 0.00 0.05 0.05 86 1010.2
20260509020520 20 157 1.6 6.4 0.00 0.05 0.05 85 1010.2
20260509020034 20 157 1.6 9.7 0.00 0.05 0.05 85 1010.2
20260509015516 20 143 1.6 9.7 0.00 0.05 0.05 85 1010.1
20260509015016 20 140 1.6 8.0 0.00 0.05 0.05 84 1010.0
20260509014534 20 161 1.6 8.0 0.00 0.05 0.05 84 1010.0
20260509014015 20 0 0.0 8.0 0.00 0.05 0.05 83 1009.9
20260509013517 20 169 1.6 8.0 0.00 0.05 0.05 83 1009.9
20260509013048 20 155 0.0 6.4 0.00 0.05 0.05 83 1009.8
20260509012515 21 161 1.6 4.8 0.00 0.05 0.05 82 1009.6
20260509012017 21 175 0.0 9.7 0.00 0.05 0.05 82 1009.6
20260509011536 21 138 1.6 11.3 0.00 0.05 0.05 81 1009.5
20260509011015 21 137 3.2 11.3 0.00 0.05 0.05 81 1009.4
20260509010516 21 111 3.2 9.7 0.00 0.05 0.05 80 1009.3
20260509010034 21 197 1.6 11.3 0.00 0.05 0.05 79 1009.2
20260509005517 21 165 1.6 11.3 0.00 0.05 0.05 79 1009.2
20260509005016 22 138 1.6 9.7 0.00 0.05 0.05 79 1009.2
20260509004533 22 180 1.6 9.7 0.00 0.05 0.05 78 1009.2
20260509004016 22 159 1.6 6.4 0.00 0.05 0.05 78 1009.2
20260509003518 22 184 1.6 8.0 0.00 0.05 0.05 77 1009.0
20260509003034 22 175 1.6 8.0 0.00 0.05 0.05 77 1009.1
20260509002515 22 156 1.6 8.0 0.00 0.05 0.05 76 1009.3
20260509002015 23 157 1.6 8.0 0.00 0.05 0.05 76 1009.3
20260509001535 23 139 3.2 8.0 0.00 0.05 0.05 75 1009.4
20260509001016 23 75 1.6 9.7 0.00 0.05 0.05 75 1009.4
20260509000515 23 178 3.2 9.7 0.00 0.05 0.05 74 1009.3